| time (UTC) | temp F | wind direction | speed knots | gust knots | rain 1hr in | rain 24hr in | rain mn in | humidity % | barometer mb |
| 20260509162505 | 57 | 262 | 4.3 | 10.4 | 0.00 | 0.00 | 0.00 | 52 | 1004.6 |
| 20260509162006 | 58 | 269 | 2.6 | 8.7 | 0.00 | 0.00 | 0.00 | 56 | 1004.5 |
| 20260509161506 | 57 | 282 | 1.7 | 7.0 | 0.00 | 0.00 | 0.00 | 57 | 1004.4 |
| 20260509161006 | 57 | 279 | 2.6 | 7.8 | 0.00 | 0.00 | 0.00 | 56 | 1004.4 |
| 20260509160505 | 57 | 290 | 4.3 | 8.7 | 0.00 | 0.00 | 0.00 | 55 | 1004.3 |
| 20260509155506 | 56 | 297 | 1.7 | 7.0 | 0.00 | 0.00 | 0.00 | 59 | 1004.2 |
| 20260509154006 | 57 | 297 | 1.7 | 8.7 | 0.00 | 0.00 | 0.00 | 60 | 1004.1 |
| 20260509153506 | 56 | 285 | 2.6 | 8.7 | 0.00 | 0.00 | 0.00 | 61 | 1004.0 |
| 20260509153006 | 56 | 295 | 3.5 | 7.8 | 0.00 | 0.00 | 0.00 | 62 | 1004.0 |
| 20260509152006 | 56 | 296 | 3.5 | 7.0 | 0.00 | 0.00 | 0.00 | 63 | 1003.7 |
| 20260509151506 | 55 | 296 | 1.7 | 7.8 | 0.00 | 0.00 | 0.00 | 63 | 1003.7 |
| 20260509151006 | 55 | 303 | 3.5 | 8.7 | 0.00 | 0.00 | 0.00 | 62 | 1003.6 |
| 20260509150006 | 55 | 310 | 2.6 | 7.8 | 0.00 | 0.00 | 0.00 | 68 | 1003.4 |
| 20260509145506 | 55 | 310 | 2.6 | 7.0 | 0.00 | 0.00 | 0.00 | 67 | 1003.3 |
| 20260509144006 | 56 | 293 | 3.5 | 7.0 | 0.00 | 0.00 | 0.00 | 68 | 1002.8 |
| 20260509143506 | 55 | 298 | 2.6 | 8.7 | 0.00 | 0.00 | 0.00 | 69 | 1002.7 |
| 20260509143006 | 55 | 277 | 1.7 | 8.7 | 0.00 | 0.00 | 0.00 | 69 | 1002.7 |
| 20260509142506 | 55 | 300 | 1.7 | 8.7 | 0.00 | 0.00 | 0.00 | 70 | 1002.7 |
| 20260509141505 | 55 | 302 | 4.3 | 7.8 | 0.00 | 0.00 | 0.00 | 67 | 1002.6 |
| 20260509141006 | 55 | 280 | 3.5 | 8.7 | 0.00 | 0.00 | 0.00 | 68 | 1002.5 |
| 20260509140505 | 55 | 278 | 2.6 | 10.4 | 0.00 | 0.00 | 0.00 | 67 | 1002.6 |
| 20260509140006 | 55 | 286 | 4.3 | 12.2 | 0.00 | 0.00 | 0.00 | 66 | 1002.5 |
| 20260509135506 | 55 | 286 | 1.7 | 6.1 | 0.00 | 0.00 | 0.00 | 68 | 1002.3 |
| 20260509135006 | 56 | 294 | 4.3 | 8.7 | 0.00 | 0.00 | 0.00 | 67 | 1002.1 |
| 20260509134506 | 55 | 289 | 2.6 | 10.4 | 0.00 | 0.00 | 0.00 | 68 | 1002.1 |
| 20260509134006 | 55 | 265 | 3.5 | 10.4 | 0.00 | 0.00 | 0.00 | 66 | 1002.1 |
| 20260509133506 | 56 | 299 | 2.6 | 7.0 | 0.00 | 0.00 | 0.00 | 67 | 1002.1 |
| 20260509133006 | 55 | 277 | 4.3 | 10.4 | 0.00 | 0.00 | 0.00 | 66 | 1002.1 |
| 20260509131506 | 54 | 310 | 2.6 | 5.2 | 0.00 | 0.00 | 0.00 | 63 | 1001.9 |
| 20260509131006 | 54 | 282 | 2.6 | 6.1 | 0.00 | 0.00 | 0.00 | 62 | 1001.8 |
| 20260509130506 | 53 | 288 | 0.9 | 2.6 | 0.00 | 0.00 | 0.00 | 62 | 1001.8 |
| 20260509130005 | 52 | 289 | 0.9 | 2.6 | 0.00 | 0.00 | 0.00 | 64 | 1001.7 |
| 20260509125006 | 51 | 289 | 0.9 | 2.6 | 0.00 | 0.00 | 0.00 | 62 | 1001.8 |
| 20260509124005 | 51 | 289 | 0.0 | 0.9 | 0.00 | 0.00 | 0.00 | 63 | 1001.5 |
| 20260509123506 | 50 | 289 | 0.0 | 0.9 | 0.00 | 0.00 | 0.00 | 63 | 1001.5 |
| 20260509123006 | 50 | 289 | 0.0 | 0.9 | 0.00 | 0.00 | 0.00 | 63 | 1001.6 |
| 20260509122006 | 50 | 289 | 0.0 | 0.9 | 0.00 | 0.00 | 0.00 | 59 | 1001.6 |
| 20260509121506 | 50 | 289 | 0.9 | 0.9 | 0.00 | 0.00 | 0.00 | 60 | 1001.6 |
| 20260509121005 | 50 | 289 | 0.0 | 0.9 | 0.00 | 0.00 | 0.00 | 59 | 1001.6 |
| 20260509120506 | 50 | 289 | 0.0 | 1.7 | 0.00 | 0.00 | 0.00 | 60 | 1001.6 |
| 20260509120006 | 50 | 289 | 0.9 | 0.9 | 0.00 | 0.00 | 0.00 | 58 | 1001.5 |
| 20260509115505 | 50 | 289 | 0.0 | 0.0 | 0.00 | 0.00 | 0.00 | 57 | 1001.3 |
| 20260509115006 | 50 | 289 | 0.0 | 1.7 | 0.00 | 0.00 | 0.00 | 57 | 1001.0 |
| 20260509114506 | 51 | 289 | 0.0 | 1.7 | 0.00 | 0.00 | 0.00 | 57 | 1000.8 |
| 20260509114006 | 51 | 289 | 0.0 | 1.7 | 0.00 | 0.00 | 0.00 | 56 | 1001.1 |
| 20260509113506 | 50 | 289 | 0.9 | 2.6 | 0.00 | 0.00 | 0.00 | 56 | 1001.3 |
| 20260509113006 | 50 | 289 | 0.9 | 2.6 | 0.00 | 0.00 | 0.00 | 56 | 1001.2 |
| 20260509112505 | 50 | 289 | 0.9 | 2.6 | 0.00 | 0.00 | 0.00 | 56 | 1001.2 |
| 20260509112006 | 50 | 289 | 0.9 | 2.6 | 0.00 | 0.00 | 0.00 | 55 | 1001.0 |
| 20260509111506 | 50 | 289 | 0.0 | 0.9 | 0.00 | 0.00 | 0.00 | 55 | 1001.1 |
| 20260509111006 | 50 | 289 | 0.0 | 0.9 | 0.00 | 0.00 | 0.00 | 55 | 1001.0 |
| 20260509110006 | 50 | 289 | 0.0 | 0.9 | 0.00 | 0.00 | 0.00 | 56 | 1000.9 |
| 20260509105006 | 49 | 289 | 0.9 | 2.6 | 0.00 | 0.00 | 0.00 | 56 | 1000.6 |
| 20260509104505 | 49 | 289 | 0.9 | 1.7 | 0.00 | 0.00 | 0.00 | 58 | 1000.7 |
| 20260509104006 | 49 | 289 | 0.9 | 2.6 | 0.00 | 0.00 | 0.00 | 58 | 1000.8 |
| 20260509103006 | 48 | 306 | 0.9 | 2.6 | 0.00 | 0.00 | 0.00 | 61 | 1000.6 |
| 20260509102506 | 47 | 128 | 0.9 | 2.6 | 0.00 | 0.00 | 0.00 | 64 | 1000.3 |
| 20260509102006 | 47 | 128 | 1.7 | 2.6 | 0.00 | 0.00 | 0.00 | 65 | 999.9 |
| 20260509101506 | 46 | 128 | 1.7 | 2.6 | 0.00 | 0.00 | 0.00 | 64 | 999.9 |
| 20260509100506 | 45 | 311 | 0.0 | 1.7 | 0.00 | 0.00 | 0.00 | 67 | 999.8 |
| 20260509100006 | 45 | 311 | 0.0 | 0.9 | 0.00 | 0.00 | 0.00 | 70 | 999.7 |
| 20260509095506 | 45 | 311 | 0.0 | 0.9 | 0.00 | 0.00 | 0.00 | 68 | 999.8 |
| 20260509095006 | 45 | 311 | 0.0 | 0.0 | 0.00 | 0.00 | 0.00 | 69 | 999.9 |
| 20260509094506 | 45 | 311 | 0.0 | 0.0 | 0.00 | 0.00 | 0.00 | 67 | 999.8 |
| 20260509093506 | 45 | 311 | 0.0 | 0.0 | 0.00 | 0.00 | 0.00 | 68 | 1000.0 |
| 20260509093006 | 45 | 311 | 0.0 | 0.0 | 0.00 | 0.00 | 0.00 | 64 | 1000.0 |
| 20260509092506 | 45 | 311 | 0.0 | 0.0 | 0.00 | 0.00 | 0.00 | 64 | 1000.1 |
| 20260509092006 | 45 | 311 | 0.0 | 0.0 | 0.00 | 0.00 | 0.00 | 64 | 1000.1 |
| 20260509091505 | 45 | 311 | 0.0 | 0.0 | 0.00 | 0.00 | 0.00 | 63 | 1000.2 |
| 20260509091006 | 46 | 311 | 0.0 | 0.0 | 0.00 | 0.00 | 0.00 | 64 | 1000.0 |
| 20260509090506 | 46 | 311 | 0.0 | 0.0 | 0.00 | 0.00 | 0.00 | 62 | 1000.1 |
| 20260509090006 | 46 | 311 | 0.0 | 0.0 | 0.00 | 0.00 | 0.00 | 60 | 1000.2 |
| 20260509085505 | 46 | 311 | 0.0 | 0.0 | 0.00 | 0.00 | 0.00 | 59 | 1000.2 |
| 20260509084506 | 47 | 311 | 0.0 | 0.0 | 0.00 | 0.00 | 0.00 | 60 | 1000.2 |
| 20260509084006 | 47 | 311 | 0.0 | 0.0 | 0.00 | 0.00 | 0.00 | 58 | 1000.1 |
| 20260509083506 | 47 | 311 | 0.0 | 0.0 | 0.00 | 0.00 | 0.00 | 58 | 1000.0 |
| 20260509083012 | 47 | 311 | 0.0 | 0.0 | 0.00 | 0.00 | 0.00 | 58 | 1000.1 |
| 20260509082506 | 47 | 311 | 0.0 | 0.0 | 0.00 | 0.00 | 0.00 | 57 | 999.8 |
| 20260509082005 | 47 | 311 | 0.0 | 0.0 | 0.00 | 0.00 | 0.00 | 56 | 999.8 |
| 20260509081505 | 48 | 311 | 0.0 | 0.0 | 0.00 | 0.00 | 0.00 | 55 | 999.8 |
| 20260509081006 | 48 | 311 | 0.0 | 0.0 | 0.00 | 0.00 | 0.00 | 54 | 1000.0 |
| 20260509080506 | 48 | 311 | 0.0 | 0.0 | 0.00 | 0.00 | 0.00 | 53 | 1000.0 |
| 20260509080006 | 48 | 311 | 0.0 | 0.0 | 0.00 | 0.00 | 0.00 | 54 | 1000.0 |
| 20260509075505 | 49 | 311 | 0.0 | 0.0 | 0.00 | 0.00 | 0.00 | 53 | 1000.1 |
| 20260509075005 | 49 | 311 | 0.0 | 0.0 | 0.00 | 0.00 | 0.00 | 53 | 1000.1 |
| 20260509074507 | 49 | 311 | 0.0 | 0.0 | 0.00 | 0.00 | 0.00 | 55 | 1000.1 |
| 20260509073506 | 50 | 311 | 0.0 | 0.0 | 0.00 | 0.00 | 0.00 | 50 | 1000.2 |
| 20260509073006 | 51 | 311 | 0.0 | 0.0 | 0.00 | 0.00 | 0.00 | 50 | 1000.3 |
| 20260509072006 | 51 | 311 | 0.0 | 0.0 | 0.00 | 0.00 | 0.00 | 48 | 1000.4 |
| 20260509071506 | 52 | 311 | 0.0 | 0.0 | 0.00 | 0.00 | 0.00 | 47 | 1000.4 |
| 20260509071006 | 52 | 311 | 0.0 | 0.0 | 0.00 | 0.00 | 0.00 | 46 | 1000.5 |
| 20260509070005 | 53 | 311 | 0.0 | 0.0 | 0.00 | 0.00 | 0.00 | 45 | 1000.6 |
| 20260509065506 | 53 | 311 | 0.0 | 0.0 | 0.00 | 0.00 | 0.00 | 45 | 1000.7 |
| 20260509065006 | 53 | 311 | 0.0 | 0.0 | 0.00 | 0.00 | 0.00 | 45 | 1000.8 |
| 20260509064505 | 54 | 311 | 0.0 | 0.0 | 0.00 | 0.00 | 0.00 | 44 | 1000.7 |
| 20260509064006 | 54 | 311 | 0.0 | 0.0 | 0.00 | 0.00 | 0.00 | 43 | 1000.9 |
| 20260509062506 | 55 | 311 | 0.0 | 0.9 | 0.00 | 0.00 | 0.00 | 41 | 1000.9 |
| 20260509062006 | 55 | 311 | 0.0 | 0.0 | 0.00 | 0.00 | 0.00 | 42 | 1000.8 |
| 20260509061505 | 56 | 311 | 0.0 | 0.9 | 0.00 | 0.00 | 0.00 | 41 | 1000.8 |
| 20260509060506 | 56 | 311 | 0.9 | 2.6 | 0.00 | 0.00 | 0.00 | 40 | 1001.1 |
| 20260509060006 | 56 | 311 | 0.9 | 1.7 | 0.00 | 0.00 | 0.00 | 40 | 1001.1 |
| 20260509055505 | 57 | 311 | 0.9 | 2.6 | 0.00 | 0.00 | 0.00 | 40 | 1001.0 |
| 20260509055006 | 57 | 311 | 1.7 | 2.6 | 0.00 | 0.00 | 0.00 | 40 | 1001.0 |
| 20260509054006 | 57 | 292 | 1.7 | 2.6 | 0.00 | 0.00 | 0.00 | 39 | 1001.0 |
| 20260509053505 | 57 | 287 | 1.7 | 2.6 | 0.00 | 0.00 | 0.00 | 39 | 1001.0 |
| 20260509053005 | 58 | 306 | 1.7 | 2.6 | 0.00 | 0.00 | 0.00 | 39 | 1001.0 |
| 20260509052505 | 58 | 317 | 2.6 | 7.0 | 0.00 | 0.00 | 0.00 | 38 | 1001.0 |
| 20260509052006 | 58 | 278 | 2.6 | 8.7 | 0.00 | 0.00 | 0.00 | 39 | 1001.0 |
| 20260509051505 | 58 | 307 | 1.7 | 6.1 | 0.00 | 0.00 | 0.00 | 39 | 1001.0 |
| 20260509050506 | 57 | 289 | 1.7 | 6.1 | 0.00 | 0.00 | 0.00 | 40 | 1001.0 |
| 20260509050006 | 57 | 313 | 0.9 | 7.0 | 0.00 | 0.00 | 0.00 | 40 | 1000.9 |
| 20260509045506 | 57 | 309 | 0.9 | 7.0 | 0.00 | 0.00 | 0.00 | 40 | 1001.0 |
| 20260509045006 | 58 | 311 | 0.9 | 2.6 | 0.00 | 0.00 | 0.00 | 41 | 1001.0 |
| 20260509044506 | 58 | 294 | 0.9 | 2.6 | 0.00 | 0.00 | 0.00 | 40 | 1001.0 |
| 20260509044006 | 58 | 294 | 0.9 | 4.3 | 0.00 | 0.00 | 0.00 | 39 | 1001.1 |
| 20260509043506 | 58 | 281 | 1.7 | 4.3 | 0.00 | 0.00 | 0.00 | 39 | 1001.0 |
| 20260509043018 | 58 | 254 | 1.7 | 2.6 | 0.00 | 0.00 | 0.00 | 39 | 1000.9 |
| 20260509042505 | 59 | 288 | 0.9 | 1.7 | 0.00 | 0.00 | 0.00 | 38 | 1000.9 |
| 20260509042006 | 59 | 288 | 0.0 | 1.7 | 0.00 | 0.00 | 0.00 | 38 | 1000.8 |
| 20260509041505 | 59 | 290 | 0.9 | 2.6 | 0.00 | 0.00 | 0.00 | 38 | 1000.9 |
| 20260509041006 | 59 | 284 | 1.7 | 2.6 | 0.00 | 0.00 | 0.00 | 37 | 1000.9 |
| 20260509040506 | 60 | 281 | 0.9 | 1.7 | 0.00 | 0.00 | 0.00 | 37 | 1000.9 |
| 20260509040005 | 60 | 281 | 0.9 | 2.6 | 0.00 | 0.00 | 0.00 | 37 | 1000.9 |
| 20260509035505 | 60 | 281 | 0.9 | 1.7 | 0.00 | 0.00 | 0.00 | 37 | 1000.9 |
| 20260509035006 | 60 | 281 | 0.9 | 5.2 | 0.00 | 0.00 | 0.00 | 37 | 1000.9 |
| 20260509034006 | 59 | 270 | 0.9 | 5.2 | 0.00 | 0.00 | 0.00 | 39 | 1000.8 |
| 20260509033505 | 58 | 267 | 0.9 | 2.6 | 0.00 | 0.00 | 0.00 | 39 | 1000.8 |
| 20260509033006 | 58 | 245 | 0.0 | 1.7 | 0.00 | 0.00 | 0.00 | 41 | 1000.8 |
| 20260509032505 | 59 | 310 | 0.0 | 0.0 | 0.00 | 0.00 | 0.00 | 39 | 1000.7 |
| 20260509032005 | 59 | 310 | 0.0 | 0.0 | 0.00 | 0.00 | 0.00 | 39 | 1000.7 |
| 20260509031505 | 60 | 310 | 0.0 | 0.0 | 0.00 | 0.00 | 0.00 | 39 | 1000.6 |
| 20260509031006 | 60 | 310 | 0.0 | 0.0 | 0.00 | 0.00 | 0.00 | 37 | 1000.5 |
| 20260509030505 | 61 | 310 | 0.0 | 0.0 | 0.00 | 0.00 | 0.00 | 37 | 1000.4 |
| 20260509030006 | 61 | 310 | 0.0 | 0.0 | 0.00 | 0.00 | 0.00 | 37 | 1000.4 |
| 20260509025506 | 61 | 310 | 0.0 | 0.0 | 0.00 | 0.00 | 0.00 | 36 | 1000.4 |
| 20260509025006 | 61 | 310 | 0.0 | 0.9 | 0.00 | 0.00 | 0.00 | 37 | 1000.3 |
| 20260509024005 | 62 | 311 | 0.9 | 1.7 | 0.00 | 0.00 | 0.00 | 35 | 1000.2 |
| 20260509023506 | 62 | 310 | 0.0 | 1.7 | 0.00 | 0.00 | 0.00 | 35 | 1000.2 |
| 20260509023006 | 62 | 310 | 0.9 | 2.6 | 0.00 | 0.00 | 0.00 | 35 | 1000.1 |
| 20260509022006 | 62 | 310 | 0.0 | 0.9 | 0.00 | 0.00 | 0.00 | 35 | 1000.1 |
| 20260509021505 | 63 | 311 | 0.0 | 0.9 | 0.00 | 0.00 | 0.00 | 35 | 1000.0 |
| 20260509021006 | 63 | 310 | 0.0 | 0.9 | 0.00 | 0.00 | 0.00 | 34 | 1000.0 |
| 20260509020506 | 63 | 310 | 0.0 | 0.9 | 0.00 | 0.00 | 0.00 | 33 | 999.9 |
| 20260509015006 | 65 | 310 | 0.9 | 1.7 | 0.00 | 0.00 | 0.00 | 32 | 999.8 |
| 20260509014506 | 65 | 311 | 0.0 | 1.7 | 0.00 | 0.00 | 0.00 | 32 | 999.8 |
| 20260509014006 | 65 | 311 | 0.9 | 1.7 | 0.00 | 0.00 | 0.00 | 31 | 999.8 |
| 20260509013005 | 66 | 310 | 0.0 | 2.6 | 0.00 | 0.00 | 0.00 | 31 | 999.8 |
| 20260509012506 | 66 | 311 | 1.7 | 4.3 | 0.00 | 0.00 | 0.00 | 31 | 999.6 |
| 20260509012006 | 67 | 289 | 0.9 | 4.3 | 0.00 | 0.00 | 0.00 | 31 | 999.6 |
| 20260509011506 | 67 | 273 | 0.9 | 2.6 | 0.00 | 0.00 | 0.00 | 31 | 999.6 |
| 20260509011005 | 67 | 296 | 0.9 | 4.3 | 0.00 | 0.00 | 0.00 | 31 | 999.6 |
| 20260509010506 | 67 | 298 | 1.7 | 2.6 | 0.00 | 0.00 | 0.00 | 31 | 999.6 |
| 20260509010005 | 67 | 334 | 1.7 | 2.6 | 0.00 | 0.00 | 0.00 | 32 | 999.6 |
| 20260509005505 | 68 | 231 | 1.7 | 7.0 | 0.00 | 0.00 | 0.00 | 31 | 999.6 |
| 20260509005005 | 68 | 256 | 0.9 | 1.7 | 0.00 | 0.00 | 0.00 | 32 | 999.6 |
| 20260509004506 | 68 | 258 | 1.7 | 2.6 | 0.00 | 0.00 | 0.00 | 32 | 999.5 |
| 20260509004006 | 68 | 292 | 0.9 | 2.6 | 0.00 | 0.00 | 0.00 | 32 | 999.4 |
| 20260509003506 | 68 | 275 | 0.9 | 2.6 | 0.00 | 0.00 | 0.00 | 32 | 999.4 |
| 20260509003007 | 69 | 221 | 1.7 | 2.6 | 0.00 | 0.00 | 0.00 | 31 | 999.5 |
| 20260509002506 | 69 | 213 | 1.7 | 5.2 | 0.00 | 0.00 | 0.00 | 30 | 999.5 |
| 20260509002006 | 69 | 290 | 1.7 | 4.3 | 0.00 | 0.00 | 0.00 | 31 | 999.6 |
| 20260509001005 | 69 | 229 | 1.7 | 6.1 | 0.00 | 0.00 | 0.00 | 31 | 999.6 |
| 20260509000506 | 69 | 223 | 1.7 | 6.1 | 0.00 | 0.00 | 0.00 | 30 | 999.7 |
| 20260508235505 | 69 | 222 | 1.7 | 5.2 | 0.00 | 0.00 | 0.00 | 30 | 999.8 |
| 20260508235006 | 69 | 300 | 0.9 | 2.6 | 0.00 | 0.00 | 0.00 | 31 | 999.8 |
| 20260508234006 | 70 | 282 | 1.7 | 6.1 | 0.00 | 0.00 | 0.00 | 29 | 999.7 |
| 20260508233506 | 70 | 233 | 2.6 | 6.1 | 0.00 | 0.00 | 0.00 | 29 | 999.8 |
| 20260508233006 | 70 | 212 | 2.6 | 12.2 | 0.00 | 0.00 | 0.00 | 29 | 999.8 |
| 20260508232505 | 69 | 286 | 2.6 | 12.2 | 0.00 | 0.00 | 0.00 | 29 | 999.9 |
| 20260508232005 | 70 | 212 | 2.6 | 6.1 | 0.00 | 0.00 | 0.00 | 29 | 999.9 |
| 20260508231506 | 70 | 308 | 2.6 | 7.8 | 0.00 | 0.00 | 0.00 | 29 | 999.9 |
| 20260508231006 | 70 | 326 | 2.6 | 10.4 | 0.00 | 0.00 | 0.00 | 29 | 999.9 |
| 20260508230505 | 70 | 245 | 2.6 | 10.4 | 0.00 | 0.00 | 0.00 | 29 | 1000.0 |
| 20260508230006 | 70 | 283 | 1.7 | 5.2 | 0.00 | 0.00 | 0.00 | 29 | 1000.0 |
| 20260508225506 | 70 | 238 | 1.7 | 4.3 | 0.00 | 0.00 | 0.00 | 27 | 1000.1 |
| 20260508224006 | 70 | 220 | 2.6 | 6.1 | 0.00 | 0.00 | 0.00 | 27 | 1000.1 |
| 20260508223506 | 70 | 191 | 2.6 | 4.3 | 0.00 | 0.00 | 0.00 | 26 | 1000.2 |
| 20260508223006 | 70 | 205 | 2.6 | 6.1 | 0.00 | 0.00 | 0.00 | 25 | 1000.1 |
| 20260508222006 | 70 | 189 | 3.5 | 6.1 | 0.00 | 0.00 | 0.00 | 26 | 1000.2 |
| 20260508221506 | 70 | 181 | 1.7 | 2.6 | 0.00 | 0.00 | 0.00 | 26 | 1000.4 |
| 20260508221006 | 70 | 177 | 2.6 | 6.1 | 0.00 | 0.00 | 0.00 | 26 | 1000.4 |
| 20260508220506 | 70 | 187 | 1.7 | 10.4 | 0.00 | 0.00 | 0.00 | 26 | 1000.4 |
| 20260508220005 | 70 | 284 | 1.7 | 2.6 | 0.00 | 0.00 | 0.00 | 25 | 1000.6 |
| 20260508215006 | 70 | 185 | 2.6 | 7.8 | 0.00 | 0.00 | 0.00 | 27 | 1000.7 |
| 20260508214505 | 69 | 171 | 4.3 | 10.4 | 0.00 | 0.00 | 0.00 | 27 | 1000.8 |
| 20260508214005 | 69 | 192 | 2.6 | 5.2 | 0.00 | 0.00 | 0.00 | 27 | 1000.9 |
| 20260508213505 | 69 | 215 | 2.6 | 6.1 | 0.00 | 0.00 | 0.00 | 25 | 1001.1 |
| 20260508213006 | 69 | 194 | 2.6 | 5.2 | 0.00 | 0.00 | 0.00 | 28 | 1001.1 |
| 20260508212506 | 69 | 215 | 1.7 | 2.6 | 0.00 | 0.00 | 0.00 | 26 | 1001.1 |
| 20260508212006 | 69 | 315 | 1.7 | 4.3 | 0.00 | 0.00 | 0.00 | 25 | 1001.2 |
| 20260508211505 | 69 | 248 | 1.7 | 2.6 | 0.00 | 0.00 | 0.00 | 24 | 1001.3 |
| 20260508211005 | 69 | 252 | 1.7 | 5.2 | 0.00 | 0.00 | 0.00 | 26 | 1001.3 |
| 20260508210506 | 69 | 244 | 1.7 | 7.0 | 0.00 | 0.00 | 0.00 | 27 | 1001.4 |
| 20260508210006 | 69 | 226 | 2.6 | 7.8 | 0.00 | 0.00 | 0.00 | 25 | 1001.5 |
| 20260508205505 | 69 | 183 | 1.7 | 2.6 | 0.00 | 0.00 | 0.00 | 26 | 1001.6 |
| 20260508204505 | 69 | 237 | 2.6 | 7.0 | 0.00 | 0.00 | 0.00 | 25 | 1001.8 |
| 20260508204006 | 70 | 265 | 1.7 | 4.3 | 0.00 | 0.00 | 0.00 | 24 | 1001.8 |
| 20260508203506 | 70 | 190 | 1.7 | 6.1 | 0.00 | 0.00 | 0.00 | 26 | 1001.8 |
| 20260508203006 | 70 | 297 | 2.6 | 6.1 | 0.00 | 0.00 | 0.00 | 27 | 1001.8 |
| 20260508202505 | 69 | 203 | 1.7 | 2.6 | 0.00 | 0.00 | 0.00 | 25 | 1001.9 |
| 20260508202006 | 69 | 237 | 2.6 | 7.0 | 0.00 | 0.00 | 0.00 | 25 | 1002.0 |
| 20260508201505 | 69 | 188 | 1.7 | 4.3 | 0.00 | 0.00 | 0.00 | 25 | 1002.0 |
| 20260508200505 | 69 | 205 | 1.7 | 2.6 | 0.00 | 0.00 | 0.00 | 26 | 1002.2 |
| 20260508200005 | 69 | 307 | 1.7 | 5.2 | 0.00 | 0.00 | 0.00 | 26 | 1002.3 |
| 20260508195005 | 69 | 342 | 1.7 | 5.2 | 0.00 | 0.00 | 0.00 | 27 | 1002.3 |
| 20260508194505 | 70 | 275 | 1.7 | 7.8 | 0.00 | 0.00 | 0.00 | 26 | 1002.5 |
| 20260508194005 | 70 | 267 | 1.7 | 7.8 | 0.00 | 0.00 | 0.00 | 26 | 1002.6 |
| 20260508193505 | 71 | 268 | 2.6 | 7.0 | 0.00 | 0.00 | 0.00 | 25 | 1002.7 |
| 20260508193005 | 71 | 272 | 1.7 | 7.0 | 0.00 | 0.00 | 0.00 | 24 | 1002.7 |
| 20260508192005 | 71 | 192 | 2.6 | 6.1 | 0.00 | 0.00 | 0.00 | 25 | 1002.8 |
| 20260508191506 | 71 | 169 | 2.6 | 6.1 | 0.00 | 0.00 | 0.00 | 23 | 1002.9 |
| 20260508191006 | 71 | 182 | 2.6 | 6.1 | 0.00 | 0.00 | 0.00 | 25 | 1003.1 |
| 20260508190505 | 71 | 191 | 3.5 | 6.1 | 0.00 | 0.00 | 0.00 | 26 | 1003.0 |
| 20260508190005 | 70 | 254 | 1.7 | 4.3 | 0.00 | 0.00 | 0.00 | 30 | 1003.1 |
| 20260508185505 | 70 | 273 | 2.6 | 7.8 | 0.00 | 0.00 | 0.00 | 26 | 1003.3 |
| 20260508185005 | 70 | 275 | 2.6 | 6.1 | 0.00 | 0.00 | 0.00 | 25 | 1003.3 |
| 20260508184006 | 71 | 236 | 1.7 | 6.1 | 0.00 | 0.00 | 0.00 | 25 | 1003.3 |
| 20260508183505 | 71 | 267 | 1.7 | 7.8 | 0.00 | 0.00 | 0.00 | 25 | 1003.4 |
| 20260508183006 | 70 | 236 | 2.6 | 7.8 | 0.00 | 0.00 | 0.00 | 25 | 1003.5 |
| 20260508182505 | 70 | 163 | 1.7 | 5.2 | 0.00 | 0.00 | 0.00 | 27 | 1003.5 |
| 20260508182006 | 70 | 173 | 0.9 | 4.3 | 0.00 | 0.00 | 0.00 | 27 | 1003.7 |
| 20260508181005 | 68 | 200 | 1.7 | 7.8 | 0.00 | 0.00 | 0.00 | 26 | 1003.9 |
| 20260508180506 | 68 | 252 | 2.6 | 5.2 | 0.00 | 0.00 | 0.00 | 27 | 1004.0 |
| 20260508174505 | 69 | 311 | 1.7 | 2.6 | 0.00 | 0.00 | 0.00 | 26 | 1004.4 |
| 20260508174005 | 69 | 197 | 1.7 | 5.2 | 0.00 | 0.00 | 0.00 | 27 | 1004.5 |
| 20260508173505 | 69 | 237 | 2.6 | 6.1 | 0.00 | 0.00 | 0.00 | 26 | 1004.6 |
| 20260508172506 | 67 | 172 | 2.6 | 5.2 | 0.00 | 0.00 | 0.00 | 30 | 1004.8 |
| 20260508172005 | 66 | 157 | 1.7 | 4.3 | 0.00 | 0.00 | 0.00 | 31 | 1004.9 |
| 20260508171505 | 66 | 214 | 2.6 | 4.3 | 0.00 | 0.00 | 0.00 | 28 | 1005.1 |
| 20260508170505 | 66 | 279 | 1.7 | 7.8 | 0.00 | 0.00 | 0.00 | 29 | 1005.3 |
| 20260508170005 | 66 | 270 | 1.7 | 2.6 | 0.00 | 0.00 | 0.00 | 29 | 1005.3 |
| 20260508165505 | 65 | 195 | 4.3 | 7.8 | 0.00 | 0.00 | 0.00 | 29 | 1005.3 |
| 20260508165005 | 65 | 207 | 2.6 | 6.1 | 0.00 | 0.00 | 0.00 | 29 | 1005.5 |
| 20260508164505 | 65 | 198 | 4.3 | 10.4 | 0.00 | 0.00 | 0.00 | 28 | 1005.3 |
| 20260508164006 | 66 | 172 | 4.3 | 7.8 | 0.00 | 0.00 | 0.00 | 28 | 1005.4 |
| 20260508163014 | 65 | 181 | 5.2 | 10.4 | 0.00 | 0.00 | 0.00 | 32 | 1005.6 |